• Processing (Info)

  • MPEC 2003-Q57 : 2003 MC7

    The following Minor Planet Electronic Circular may be linked-to from your own Web pages, but must not otherwise be redistributed electronically.

    A form allowing access to any MPEC is at the bottom of this page.


    Read MPEC 2003-Q56 Read MPEC 2003-Q58


    M.P.E.C. 2003-Q57                                Issued 2003 Aug. 30, 15:45 UT
    
         The Minor Planet Electronic Circulars contain information on unusual
             minor planets and routine data on comets.  They are published
       on behalf of Commission 20 of the International Astronomical Union by the
              Minor Planet Center, Smithsonian Astrophysical Observatory,
                              Cambridge, MA 02138, U.S.A.
    
                 Prepared using the Tamkin Foundation Computer Network
    
                                  MPC@CFA.HARVARD.EDU
              URL http://cfa-www.harvard.edu/iau/mpc.html  ISSN 1523-6714
    
                                       2003 MC7
    
                               Revision to MPEC 2003-M60
    
    Additional Observations:
         K03M07C 9 1953 04 13.31875 12 40 35.38 +67 29 40.0                      261
         K03M07C 9 1953 04 13.32569 12 40 35.68 +67 29 43.3                      261
         K03M07C 9 1953 04 13.33056 12 40 35.87 +67 29 45.0                      261
         K03M07C 9 1953 04 13.36181 12 40 37.63 +67 30 02.0                      261
         K03M07C  C1998 01 28.27500 07 55 44.19 +06 28 14.4          17.9 R      566
         K03M07C  C1998 01 28.28466 07 55 43.10 +06 28 38.2          17.9 R      566
         K03M07C  C1998 01 28.29525 07 55 41.89 +06 29 04.8          17.8 R      566
    
    Observer details:
    261 Palomar-DSS.  Measurers R. Haver, A. Pelloni, G. Forti.
    566 Haleakala-NEAT/GEODSS.  Observers E. F. Helin, S. Pravdo, K. J. Lawrence,
        D. L. Rabinowitz.  Measurers R. Haver, G. Forti, A. Pelloni.  1.0-m f/2.2
        GEODSS telescope + CCD.
    
    Orbital elements:
    2003 MC7
    Epoch 2003 June 10.0 TT = JDT 2452800.5                 MPC
    M  25.83465              (2000.0)            P               Q
    n   0.61215363     Peri.  101.13121     -0.48108630     +0.84138142
    a   1.3737122      Node   137.11122     -0.87664642     -0.46390234
    e   0.1842791      Incl.   21.21126     +0.00685733     -0.27725786
    P   1.61           H   19.0           G   0.15           U   2
    Residuals in seconds of arc
    530413 261  0.6-  0.2-    030703 413  0.0   0.0     030727 649  0.2+  0.8+
    530413 261  0.5-  0.4-    030703 413  0.1+  0.0     030727 649  1.0-  0.9+
    530413 261  0.6-  1.1-    030703 413  0.0   0.1+    030727 A50  0.2+  0.2+
    530413 261  1.8+  0.6+    030704 A50 (2.8-  1.4+)   030727 A50  0.5+  0.5-
    980128 566  0.2-  0.4+    030704 A50  0.0   0.6-    030727 A50  0.5+  0.6-
    980128 566  0.0   0.2+    030704 A50  0.0   1.0-    030727 A50  0.2+  0.3-
    980128 566  0.1+  0.4+    030705 704  0.8+  0.5+    030727 A50  0.4+  1.2-
    030628 699  0.1-  0.4-    030705 704  0.2+  0.5+    030728 A50  0.4-  0.0
    030628 699  1.9-  0.4+    030705 704  0.3-  0.4+    030728 A50  0.1-  0.2+
    030628 699  0.6+  0.5-    030705 704  0.0   0.6+    030728 A50  0.1+  0.2+
    030628 699  1.0-  0.6+    030705 704  1.1+  0.3-    030728 A50  0.2+  0.3-
    030629 J95  0.5-  0.1+    030706 785  1.9-  1.5+    030728 A50  0.4+  0.3+
    030629 J95  0.8+  0.4-    030706 785  0.9+  0.8+    030803 941  0.4-  0.1+
    030629 046  0.9-  1.0-    030706 785 (1.6-  2.0+)   030803 941  0.5-  0.1+
    030629 J95  0.7+  1.3+    030706 785  1.2-  1.4-    030803 941  0.4-  0.0
    030629 046  0.3+  0.5-    030712 A50  0.2-  0.4-    030803 941  0.4-  0.0
    030629 046  0.3+  0.1+    030712 A50  0.2+  0.5+    030804 704  0.3-  0.3+
    030629 046  0.0   1.1+    030712 A50  0.5+  0.0     030804 704  0.4-  0.0
    030629 941  0.9+  0.3+    030712 A50  0.1+  0.4-    030804 704  0.3-  0.2-
    030629 941  0.8+  0.1-    030712 A50  0.1-  0.2+    030804 704  0.1-  0.2+
    030629 941  0.8+  0.0     030712 A50  0.2+  0.3+    030804 704  0.0   0.5+
    030629 941  0.9+  0.3-    030712 A50  0.1-  0.2+    030804 176  0.0   0.0
    030629 941  0.8+  0.3-    030712 A50  0.1-  0.2+    030804 176  0.1-  0.1+
    030629 926  0.4+  0.1+    030712 A50  0.3-  0.3+    030804 176  0.1+  0.1+
    030629 926  0.3+  0.1-    030712 A50  0.3+  0.1+    030804 176  0.4-  0.3-
    030629 926  0.4+  0.2+    030712 A50  0.3+  0.1-    030804 176  0.2-  0.2+
    030629 176  0.0   0.5-    030712 J95  0.1+  0.4+    030804 176  0.1-  0.0
    030629 176  0.0   0.5-    030712 J95 (0.6-  2.2+)   030805 670  0.3-  0.1-
    030629 176  0.1+  0.5-    030717 785 (0.7+  3.9-)   030805 670  0.1+  0.1+
    030629 176  0.1+  0.5-    030717 785 (0.0   6.1-)   030817 649  0.0   0.3-
    030629 176  0.3+  0.6-    030718 413  0.1-  0.0     030817 649  0.5-  0.5+
    030629 557  0.2+  0.2-    030718 413  0.0   0.1+    030817 649  1.0-  0.1-
    030629 557  0.5+  0.1-    030718 413  0.1-  0.1+    030817 649  0.6-  0.0
    030630 557  0.3+  0.1+    030720 204 (0.6-  2.4+)   030817 952  0.3+  0.7-
    030630 246  0.2+  0.4+    030720 118  0.0   0.4-    030817 952  0.3+  0.4-
    030630 246  0.2-  0.2+    030720 118  0.1-  0.6+    030817 952  0.6+  0.0
    030630 246  0.1-  0.3-    030720 118  0.8-  0.3-    030819 859 (0.1-  2.2+)
    030630 246  0.0   0.3-    030720 118  0.4+  0.1-    030819 859 (0.8-  2.4+)
    030630 246  0.5-  0.1+    030720 170  0.9+  0.3+    030819 859  1.9+  1.1-
    030630 246  0.1-  0.1+    030720 170  0.1+  0.1+    030825 644  0.6-  0.2+
    030630 557  0.4+  0.3-    030720 170  0.0   0.2+    030825 644  0.5-  0.2-
    030702 413  0.2-  0.1-    030721 118  0.3-  1.1+    030825 644  0.2-  0.0
    030702 413  0.1-  0.0     030721 118  0.4-  0.2+
    030702 413  0.0   0.1-    030727 649  0.2+  0.1+
    
    Ephemeris:
    2003 MC7                 a,e,i = 1.37, 0.18, 21                  q = 1.1206
    Date    TT    R. A. (2000) Decl.     Delta      r     Elong.  Phase     V
    2003 08 29    22 33.67   -34 02.4    0.367    1.353   155.5    18.0    18.4
    2003 09 08    22 25.28   -39 31.8    0.427    1.380   145.3    24.6    19.0
    2003 09 18    22 20.25   -42 26.4    0.499    1.407   135.9    29.8    19.5
    2003 09 28    22 19.72   -43 28.1    0.580    1.433   127.8    33.6    20.0
    2003 10 08    22 23.81   -43 11.7    0.666    1.457   120.7    36.1    20.4
    2003 10 18    22 31.76   -42 02.4    0.757    1.481   114.5    37.8    20.8
    2003 10 28    22 42.72   -40 15.8    0.851    1.503   108.8    38.8    21.1
    2003 11 07    22 55.97   -38 02.6    0.947    1.523   103.5    39.2    21.4
    2003 11 17    23 10.85   -35 30.0    1.044    1.542    98.6    39.4    21.6
    2003 11 27    23 26.91   -32 42.8    1.142    1.559    93.9    39.2    21.8
    2003 12 07    23 43.87   -29 44.8    1.239    1.574    89.4    38.7    22.0
    
    Gareth V. Williams           (C) Copyright 2003 MPC           M.P.E.C. 2003-Q57
    

    Read MPEC 2003-Q56 Read MPEC 2003-Q58


    MPEC number:

    Enter an MPEC number in one of the following forms:

    • 1997-B01 (the full form)
    • J97B01 (the packed version of the full form)
    • B01 (the abbreviated form)